When you browse on this site, cookies collect data to enhance your experience and personalize the content and advertising you see.
Visit our Privacy Policy to learn more. By continuing to use the site, you agree to this use of cookies and data.
  • Em Portugal
  • Lista de países
  • Para 7 dias
  • Temperatura da água
  • Mapas de satélite
  • Mapa do tempo
  • Widgets de tempo
  • user-avatar
    Iniciar Sessão

    Previsão horária em Verhnyaya Ivanovka

    Hoje, 26 Abril, Sexta-feira

    Tempo Temperatura Precipitação Vento Pressão Humidade
    00:00 +10°C° 0 mm 2 m/s 750 mmHg 81%
    01:00 +9°C° 0 mm 2 m/s 750 mmHg 82%
    02:00 +8°C° 0 mm 2 m/s 750 mmHg 83%
    03:00 +8°C° 0 mm 2 m/s 750 mmHg 84%
    04:00 +8°C° 0 mm 2 m/s 750 mmHg 81%
    05:00 +8°C° 0 mm 2 m/s 750 mmHg 77%
    06:00 +8°C° 0 mm 2 m/s 750 mmHg 73%
    07:00 +9°C° 0 mm 2 m/s 751 mmHg 65%
    08:00 +11°C° 0 mm 3 m/s 751 mmHg 56%
    09:00 +12°C° 0 mm 3 m/s 751 mmHg 48%
    10:00 +12°C° 0 mm 3 m/s 751 mmHg 45%
    11:00 +13°C° 0 mm 3 m/s 751 mmHg 42%
    12:00 +13°C° 0 mm 3 m/s 751 mmHg 40%
    13:00 +14°C° 0 mm 4 m/s 751 mmHg 39%
    14:00 +14°C° 0 mm 4 m/s 751 mmHg 38%
    15:00 +14°C° 0 mm 4 m/s 751 mmHg 37%
    16:00 +14°C° 0 mm 3 m/s 751 mmHg 40%
    17:00 +14°C° 0 mm 3 m/s 750 mmHg 44%
    18:00 +14°C° 0 mm 2 m/s 750 mmHg 47%
    19:00 +13°C° 0 mm 2 m/s 750 mmHg 51%
    20:00 +12°C° 0 mm 2 m/s 750 mmHg 54%
    21:00 +10°C° 0 mm 2 m/s 751 mmHg 58%
    22:00 +9°C° 0 mm 2 m/s 750 mmHg 61%
    23:00 +10°C° 0 mm 1 m/s 750 mmHg 64%

    Amanhã, 27 Abril, Sábado

    Tempo Temperatura Precipitação Vento Pressão Humidade
    00:00 +9°C° 0 mm 1 m/s 750 mmHg 68%
    01:00 +9°C° 0 mm 1 m/s 750 mmHg 69%
    02:00 +7°C° 0 mm 0 m/s 750 mmHg 70%
    03:00 +7°C° 0 mm 0 m/s 750 mmHg 72%
    04:00 +7°C° 0 mm 0 m/s 750 mmHg 71%
    05:00 +9°C° 0 mm 1 m/s 750 mmHg 70%
    06:00 +9°C° 0 mm 1 m/s 750 mmHg 69%
    07:00 +10°C° 0 mm 2 m/s 750 mmHg 63%
    08:00 +13°C° 0 mm 2 m/s 750 mmHg 57%
    09:00 +14°C° 0 mm 3 m/s 749 mmHg 52%
    10:00 +16°C° 0 mm 3 m/s 749 mmHg 46%
    11:00 +17°C° 0 mm 4 m/s 748 mmHg 40%
    12:00 +17°C° 0 mm 5 m/s 748 mmHg 35%
    13:00 +17°C° 0 mm 5 m/s 747 mmHg 34%
    14:00 +19°C° 0 mm 5 m/s 747 mmHg 33%
    15:00 +19°C° 0 mm 6 m/s 746 mmHg 32%
    16:00 +17°C° 0 mm 5 m/s 746 mmHg 36%
    17:00 +18°C° 0 mm 3 m/s 745 mmHg 40%
    18:00 +17°C° 0 mm 2 m/s 745 mmHg 43%
    19:00 +16°C° 0 mm 2 m/s 744 mmHg 46%
    20:00 +15°C° 0 mm 2 m/s 744 mmHg 50%
    21:00 +14°C° 0 mm 2 m/s 743 mmHg 53%
    22:00 +12°C° 0 mm 3 m/s 743 mmHg 59%
    23:00 +11°C° 0 mm 3 m/s 742 mmHg 65%

    Depois de amanhã, 28 Abril, Domingo

    Tempo Temperatura Precipitação Vento Pressão Humidade
    00:00 +11°C° 0 mm 4 m/s 742 mmHg 72%
    01:00 +11°C° 0 mm 4 m/s 741 mmHg 73%
    02:00 +9°C° 0 mm 5 m/s 741 mmHg 74%
    03:00 +9°C° 0 mm 5 m/s 740 mmHg 75%
    04:00 +10°C° 0.2 mm 5 m/s 740 mmHg 75%
    05:00 +10°C° 0.2 mm 5 m/s 740 mmHg 75%
    06:00 +10°C° 0.2 mm 5 m/s 739 mmHg 75%
    07:00 +13°C° 0 mm 6 m/s 740 mmHg 72%
    08:00 +14°C° 0 mm 6 m/s 740 mmHg 69%
    09:00 +15°C° 0 mm 6 m/s 740 mmHg 66%
    10:00 +11°C° 0.5 mm 6 m/s 740 mmHg 71%
    11:00 +8°C° 0.5 mm 7 m/s 741 mmHg 76%
    12:00 +4°C° 0.5 mm 7 m/s 741 mmHg 81%
    13:00 +4°C° 0.6 mm 7 m/s 742 mmHg 78%
    14:00 +4°C° 0.6 mm 6 m/s 742 mmHg 76%
    15:00 +3°C° 0.6 mm 6 m/s 743 mmHg 73%
    16:00 +3°C° 0 mm 6 m/s 744 mmHg 69%
    17:00 +4°C° 0 mm 6 m/s 744 mmHg 65%
    18:00 +4°C° 0 mm 6 m/s 745 mmHg 60%
    19:00 +3°C° 0 mm 5 m/s 745 mmHg 64%
    20:00 +3°C° 0 mm 4 m/s 746 mmHg 67%
    21:00 +2°C° 0 mm 3 m/s 746 mmHg 71%
    22:00 +2°C° 0 mm 3 m/s 747 mmHg 72%
    23:00 0°C° 0 mm 4 m/s 747 mmHg 73%

    29 Abril, Segunda-feira

    Tempo Temperatura Precipitação Vento Pressão Humidade
    00:00 0°C° 0 mm 4 m/s 747 mmHg 74%
    01:00 -1°C° 0 mm 4 m/s 747 mmHg 74%
    02:00 -2°C° 0 mm 4 m/s 748 mmHg 73%
    03:00 -2°C° 0 mm 4 m/s 748 mmHg 73%
    04:00 -2°C° 0 mm 5 m/s 748 mmHg 73%
    05:00 -2°C° 0 mm 5 m/s 749 mmHg 73%
    06:00 -2°C° 0 mm 5 m/s 749 mmHg 73%
    07:00 -2°C° 0 mm 6 m/s 749 mmHg 67%
    08:00 -1°C° 0 mm 6 m/s 749 mmHg 60%
    09:00 0°C° 0 mm 7 m/s 750 mmHg 54%
    10:00 +2°C° 0.1 mm 6 m/s 750 mmHg 50%
    11:00 +2°C° 0.1 mm 6 m/s 750 mmHg 46%
    12:00 +3°C° 0.1 mm 6 m/s 750 mmHg 41%
    13:00 +3°C° 0 mm 6 m/s 750 mmHg 40%
    14:00 +3°C° 0 mm 6 m/s 750 mmHg 38%
    15:00 +3°C° 0 mm 6 m/s 750 mmHg 37%
    16:00 +3°C° 0 mm 5 m/s 750 mmHg 39%
    17:00 +2°C° 0 mm 5 m/s 751 mmHg 40%
    18:00 +2°C° 0 mm 5 m/s 751 mmHg 42%
    19:00 +1°C° 0 mm 4 m/s 751 mmHg 46%
    20:00 0°C° 0 mm 4 m/s 751 mmHg 50%
    21:00 0°C° 0 mm 3 m/s 752 mmHg 54%
    22:00 -1°C° 0 mm 3 m/s 752 mmHg 55%
    23:00 -1°C° 0 mm 2 m/s 752 mmHg 57%

    30 Abril, Terça-feira

    Tempo Temperatura Precipitação Vento Pressão Humidade
    00:00 -2°C° 0 mm 2 m/s 752 mmHg 59%
    01:00 -2°C° 0 mm 2 m/s 752 mmHg 58%
    02:00 -2°C° 0 mm 2 m/s 752 mmHg 58%
    03:00 -2°C° 0 mm 2 m/s 752 mmHg 58%
    04:00 -2°C° 0 mm 2 m/s 752 mmHg 55%
    05:00 -1°C° 0 mm 2 m/s 752 mmHg 51%
    06:00 +1°C° 0 mm 2 m/s 753 mmHg 48%
    07:00 +2°C° 0 mm 2 m/s 753 mmHg 43%
    08:00 +3°C° 0 mm 2 m/s 753 mmHg 38%
    09:00 +4°C° 0 mm 2 m/s 753 mmHg 34%
    10:00 +4°C° 0 mm 2 m/s 752 mmHg 32%
    11:00 +5°C° 0 mm 2 m/s 752 mmHg 31%
    12:00 +6°C° 0 mm 2 m/s 752 mmHg 30%
    13:00 +6°C° 0 mm 2 m/s 751 mmHg 29%
    14:00 +7°C° 0 mm 2 m/s 751 mmHg 29%
    15:00 +7°C° 0 mm 2 m/s 751 mmHg 29%
    16:00 +7°C° 0 mm 2 m/s 751 mmHg 32%
    17:00 +7°C° 0 mm 2 m/s 750 mmHg 35%
    18:00 +6°C° 0 mm 2 m/s 750 mmHg 37%
    19:00 +5°C° 0 mm 2 m/s 750 mmHg 40%
    20:00 +5°C° 0 mm 1 m/s 750 mmHg 43%
    21:00 +4°C° 0 mm 1 m/s 750 mmHg 46%
    22:00 +3°C° 0 mm 1 m/s 750 mmHg 47%
    23:00 +3°C° 0 mm 1 m/s 750 mmHg 47%

    1 Maio, Quarta-feira

    Tempo Temperatura Precipitação Vento Pressão Humidade
    00:00 +3°C° 0 mm 1 m/s 750 mmHg 48%
    01:00 +2°C° 0 mm 1 m/s 750 mmHg 48%
    02:00 +2°C° 0 mm 1 m/s 750 mmHg 49%
    03:00 +2°C° 0 mm 1 m/s 750 mmHg 50%
    04:00 +2°C° 0 mm 1 m/s 750 mmHg 48%
    05:00 +3°C° 0 mm 1 m/s 750 mmHg 46%
    06:00 +4°C° 0 mm 1 m/s 749 mmHg 45%
    07:00 +5°C° 0 mm 1 m/s 749 mmHg 41%
    08:00 +7°C° 0 mm 1 m/s 749 mmHg 37%
    09:00 +9°C° 0 mm 1 m/s 749 mmHg 33%
    10:00 +9°C° 0 mm 1 m/s 749 mmHg 32%
    11:00 +10°C° 0 mm 1 m/s 749 mmHg 31%
    12:00 +10°C° 0 mm 2 m/s 748 mmHg 30%
    13:00 +10°C° 0 mm 2 m/s 748 mmHg 30%
    14:00 +10°C° 0 mm 2 m/s 748 mmHg 29%
    15:00 +10°C° 0 mm 2 m/s 747 mmHg 29%
    16:00 +11°C° 0 mm 1 m/s 747 mmHg 32%
    17:00 +11°C° 0 mm 1 m/s 747 mmHg 35%
    18:00 +11°C° 0 mm 1 m/s 747 mmHg 37%
    19:00 +9°C° 0 mm 1 m/s 747 mmHg 39%
    20:00 +8°C° 0 mm 1 m/s 747 mmHg 41%
    21:00 +6°C° 0 mm 2 m/s 747 mmHg 42%
    22:00 +5°C° 0 mm 2 m/s 747 mmHg 44%
    23:00 +5°C° 0 mm 2 m/s 747 mmHg 45%
    Mostrar mais